Flag for Canada Weather past 2 weeks in Happy Valley-Goose Bay, Newfoundland and Labrador, Canada

Now
9 °F

Scattered clouds.


Feels Like: 0 °F
Forecast: -13 / 10 °F
Wind: 5 mph from Northeast

Location: Goose

Current Time: Jan 30, 2015 at 1:46:20 PM

Latest Report: Jan 30, 2015 at 1:00 PM


Visibility: 15 mi

Pressure: 30.03 "Hg

Humidity: 56%

Dew point: -4 °F

Location of Happy Valley-Goose BayLocation

Historic Weather in Happy Valley-Goose Bay — Graph

°F

Happy Valley-Goose Bay temperature yesterday

Maximum temperature yesterday: 9 °F (at 3:00 PM)
Minimum temperature yesterday: -13 °F (at 12:00 AM)
Average temperature yesterday: -2 °F

Past Weeks' High & Low Weather Summary

 TemperatureHumidityPressure
High27 °F (Jan 20, 3:00 PM)86% (Jan 20, 9:00 AM)30.65 "Hg (Jan 20, 9:00 AM)
Low-22 °F (Jan 23, 1:00 AM)42% (Jan 27, 12:00 PM)28.63 "Hg (Jan 25, 1:00 PM)
Average-2 °F65%29.83 "Hg
* Reported Jan 15 12:00 Noon — Jan 30 12:00 Noon, Happy Valley-Goose Bay, Weather by CustomWeather, © 2014

Note: Actual official high and low records may vary slightly from our data, if they occured in-between our weather recording intervals... More about our weather records

Advertising

Happy Valley-Goose Bay weather history for previous 24 hours

 ConditionsComfort  
Time TempWeatherWind HumidityBarometerVisibility
12:00 PM
Jan 30
5 °FScattered clouds.3 mph55%30.05 "Hg15 mi
11:00 AM0 °FScattered clouds.5 mph65%30.08 "Hg15 mi
10:00 AM-4 °FPartly sunny.2 mph65%30.11 "Hg15 mi
9:00 AM-6 °FPartly sunny.No wind70%30.12 "Hg15 mi
8:00 AM-9 °FPartly sunny.3 mph64%30.12 "Hg15 mi
7:00 AM-9 °FPassing clouds.3 mph64%30.13 "Hg15 mi
6:00 AM-13 °FPassing clouds.3 mph63%30.14 "Hg15 mi
5:00 AM-13 °FPassing clouds.5 mph63%30.14 "Hg15 mi
4:00 AM-13 °FPassing clouds.No wind69%30.15 "Hg15 mi
3:00 AM-13 °FPassing clouds.3 mph57%30.18 "Hg15 mi
2:00 AM-13 °FPassing clouds.3 mph57%30.19 "Hg15 mi
1:00 AM-11 °FPassing clouds.No wind70%30.21 "Hg15 mi
12:00 AM-8 °FMostly cloudy.No wind64%30.22 "Hg15 mi
11:00 PM
Jan 29
-6 °FPartly cloudy.2 mph64%30.23 "Hg15 mi
10:00 PM-6 °FPassing clouds.No wind59%30.23 "Hg15 mi
9:00 PM-8 °FPassing clouds.3 mph77%30.24 "Hg15 mi
8:00 PM-2 °FPassing clouds.3 mph71%30.24 "Hg15 mi
7:00 PM-4 °FPassing clouds.3 mph59%30.23 "Hg15 mi
6:00 PM0 °FPassing clouds.6 mph54%30.19 "Hg15 mi
5:00 PM3 °FPassing clouds.10 mph55%30.19 "Hg15 mi
4:00 PM5 °FPassing clouds.12 mph55%30.16 "Hg15 mi
3:00 PM9 °FPassing clouds.9 mph51%30.14 "Hg15 mi
2:00 PM7 °FPassing clouds.9 mph56%30.13 "Hg15 mi
1:00 PM5 °FPassing clouds.13 mph55%30.14 "Hg15 mi
Weather by CustomWeather, © 2014

See weather overviewHow to use our weather pages